CMP889 MPTO-MDPP

Flight info

Callsign CMP889
Flight time 2h 5m
Altitude 37000
Route EGET3A EGETA MANBO UL474 MUPOV UM596 ETBOD UW43 BEPAL BEPA2S
Aircraft B38M/M-SDE3FGHIRWY/S

Departure

Time 2026-05-06 18:27
Airport Tocumen International Airport (MPTO)

Arrival

Time 2026-05-06 20:33
Airport Gregorio Luperon International Airport (MDPP)
Time Latitude Longitude Altitude Speed Heading
2026-05-06 18:14 9.06180 -79.38930 60 ft 0 kts 326°
2026-05-06 18:19 9.06162 -79.38918 32 ft 4 kts 327°
2026-05-06 18:19 9.06140 -79.38903 32 ft 4 kts 315°
2026-05-06 18:20 9.06131 -79.38886 32 ft 3 kts 245°
2026-05-06 18:20 9.06132 -79.38883 32 ft 2 kts 236°
2026-05-06 18:23 9.06117 -79.38904 32 ft 9 kts 232°
2026-05-06 18:23 9.06037 -79.38981 32 ft 22 kts 218°
2026-05-06 18:23 9.05902 -79.39067 32 ft 24 kts 209°
2026-05-06 18:23 9.05769 -79.39141 32 ft 19 kts 196°
2026-05-06 18:24 9.05674 -79.39064 32 ft 19 kts 120°
2026-05-06 18:24 9.05579 -79.38980 32 ft 20 kts 195°
2026-05-06 18:24 9.05456 -79.39050 32 ft 21 kts 211°
2026-05-06 18:24 9.05323 -79.39125 32 ft 22 kts 208°
2026-05-06 18:25 9.05184 -79.39204 32 ft 24 kts 211°
2026-05-06 18:25 9.05047 -79.39284 33 ft 23 kts 209°
2026-05-06 18:25 9.04907 -79.39363 33 ft 21 kts 209°
2026-05-06 18:25 9.04806 -79.39334 33 ft 9 kts 122°
2026-05-06 18:26 9.04778 -79.39274 34 ft 9 kts 93°
2026-05-06 18:26 9.04816 -79.39228 34 ft 10 kts 28°
2026-05-06 18:26 9.04891 -79.39185 34 ft 19 kts 30°
2026-05-06 18:26 9.05230 -79.38995 33 ft 93 kts 29°
2026-05-06 18:27 9.05989 -79.38559 35 ft 155 kts 30°
2026-05-06 18:27 9.06992 -79.37976 457 ft 179 kts 32°
2026-05-06 18:27 9.08139 -79.37333 1055 ft 193 kts 28°
2026-05-06 18:27 9.09311 -79.36582 1677 ft 211 kts 36°
2026-05-06 18:28 9.10517 -79.35608 2237 ft 232 kts 39°
2026-05-06 18:28 9.11789 -79.34548 3035 ft 244 kts 39°
2026-05-06 18:28 9.13161 -79.33442 3740 ft 259 kts 38°
2026-05-06 18:28 9.14605 -79.32308 4665 ft 263 kts 39°
2026-05-06 18:29 9.16060 -79.31178 5634 ft 267 kts 39°
2026-05-06 18:29 9.17560 -79.30026 6509 ft 273 kts 39°
2026-05-06 18:29 9.19085 -79.28862 7400 ft 276 kts 39°
2026-05-06 18:29 9.20634 -79.27683 8219 ft 281 kts 39°
2026-05-06 18:30 9.22192 -79.26498 9049 ft 284 kts 39°
2026-05-06 18:30 9.23781 -79.25291 9929 ft 288 kts 39°
2026-05-06 18:30 9.25410 -79.24055 10533 ft 300 kts 39°
2026-05-06 18:30 9.27127 -79.22752 10912 ft 318 kts 39°
2026-05-06 18:31 9.28931 -79.21383 11399 ft 329 kts 39°
2026-05-06 18:31 9.30773 -79.19984 11829 ft 332 kts 39°
2026-05-06 18:31 9.32624 -79.18579 11962 ft 332 kts 39°
2026-05-06 18:31 9.34476 -79.17175 11996 ft 332 kts 39°
2026-05-06 18:32 9.36325 -79.15770 12005 ft 332 kts 39°
2026-05-06 18:32 9.38171 -79.14366 11996 ft 333 kts 39°
2026-05-06 18:32 9.40020 -79.12961 12022 ft 332 kts 39°
2026-05-06 18:32 9.41878 -79.11550 12016 ft 332 kts 39°
2026-05-06 18:33 9.43725 -79.10148 12008 ft 332 kts 39°
2026-05-06 18:33 9.45575 -79.08742 12016 ft 332 kts 39°
2026-05-06 18:33 9.47438 -79.07358 12084 ft 335 kts 38°
2026-05-06 18:33 9.49347 -79.06012 12858 ft 333 kts 38°
2026-05-06 18:34 9.51253 -79.04659 13569 ft 337 kts 38°
2026-05-06 18:34 9.53156 -79.03308 14194 ft 340 kts 38°
2026-05-06 18:34 9.55099 -79.01927 14796 ft 343 kts 38°
2026-05-06 18:34 9.57068 -79.00526 15398 ft 345 kts 38°
2026-05-06 18:35 9.59040 -78.99123 15959 ft 348 kts 38°
2026-05-06 18:35 9.61036 -78.97703 16531 ft 351 kts 38°
2026-05-06 18:35 9.63042 -78.96275 17084 ft 354 kts 38°
2026-05-06 18:35 9.65068 -78.94833 17625 ft 357 kts 38°
2026-05-06 18:36 9.67105 -78.93383 18161 ft 360 kts 38°
2026-05-06 18:36 9.69132 -78.91939 18614 ft 362 kts 37°
2026-05-06 18:36 9.71207 -78.90462 19067 ft 364 kts 37°
2026-05-06 18:36 9.73289 -78.88979 19511 ft 366 kts 37°
2026-05-06 18:37 9.75382 -78.87488 19970 ft 368 kts 37°
2026-05-06 18:37 9.77492 -78.85984 20403 ft 370 kts 37°
2026-05-06 18:37 9.79607 -78.84477 20841 ft 373 kts 37°
2026-05-06 18:37 9.81732 -78.82962 21272 ft 375 kts 37°
2026-05-06 18:38 9.83873 -78.81436 21699 ft 377 kts 37°
2026-05-06 18:38 9.86023 -78.79903 22128 ft 379 kts 37°
2026-05-06 18:38 9.88158 -78.78381 22540 ft 381 kts 37°
2026-05-06 18:38 9.90341 -78.76824 22958 ft 384 kts 36°
2026-05-06 18:39 9.92534 -78.75260 23374 ft 386 kts 36°
2026-05-06 18:39 9.94737 -78.73688 23731 ft 388 kts 36°
2026-05-06 18:39 9.96957 -78.72104 24055 ft 391 kts 36°
2026-05-06 18:40 10.01440 -78.68904 24687 ft 396 kts 36°
2026-05-06 18:40 10.03705 -78.67287 25024 ft 398 kts 36°
2026-05-06 18:40 10.05980 -78.65663 25339 ft 401 kts 36°
2026-05-06 18:40 10.08232 -78.64055 25647 ft 404 kts 36°
2026-05-06 18:41 10.10566 -78.62387 25973 ft 406 kts 36°
2026-05-06 18:41 10.12858 -78.60750 26303 ft 409 kts 36°
2026-05-06 18:41 10.15192 -78.59082 26602 ft 411 kts 36°
2026-05-06 18:41 10.17540 -78.57404 26932 ft 413 kts 36°
2026-05-06 18:42 10.19899 -78.55717 27213 ft 416 kts 36°
2026-05-06 18:42 10.22277 -78.54018 27558 ft 418 kts 35°
2026-05-06 18:42 10.24667 -78.52309 27820 ft 421 kts 35°
2026-05-06 18:42 10.27069 -78.50591 28149 ft 423 kts 35°
2026-05-06 18:43 10.29478 -78.48867 28454 ft 425 kts 35°
2026-05-06 18:43 10.31905 -78.47131 28735 ft 428 kts 35°
2026-05-06 18:43 10.34322 -78.45401 29005 ft 431 kts 35°
2026-05-06 18:43 10.36779 -78.43642 29255 ft 434 kts 34°
2026-05-06 18:44 10.39245 -78.41877 29633 ft 434 kts 34°
2026-05-06 18:44 10.41720 -78.40104 29836 ft 437 kts 34°
2026-05-06 18:44 10.44215 -78.38318 30110 ft 439 kts 34°
2026-05-06 18:44 10.46724 -78.36520 30332 ft 441 kts 34°
2026-05-06 18:45 10.49238 -78.34719 30532 ft 444 kts 34°
2026-05-06 18:45 10.51779 -78.32898 30798 ft 445 kts 34°
2026-05-06 18:45 10.54280 -78.31105 30981 ft 448 kts 34°
2026-05-06 18:45 10.56832 -78.29277 31232 ft 449 kts 34°
2026-05-06 18:46 10.59404 -78.27434 31418 ft 452 kts 34°
2026-05-06 18:46 10.61977 -78.25588 31639 ft 454 kts 34°
2026-05-06 18:46 10.64564 -78.23732 31859 ft 456 kts 33°
2026-05-06 18:46 10.67164 -78.21867 32032 ft 459 kts 33°
2026-05-06 18:47 10.69770 -78.19998 32274 ft 460 kts 34°
2026-05-06 18:47 10.72391 -78.18115 32458 ft 462 kts 34°
2026-05-06 18:47 10.75025 -78.16224 32664 ft 464 kts 34°
2026-05-06 18:47 10.77664 -78.14328 32870 ft 466 kts 33°
2026-05-06 18:48 10.80323 -78.12418 33080 ft 467 kts 33°
2026-05-06 18:48 10.82983 -78.10507 33353 ft 468 kts 33°
2026-05-06 18:48 10.85639 -78.08598 33623 ft 468 kts 33°
2026-05-06 18:48 10.88264 -78.06712 33886 ft 468 kts 33°
2026-05-06 18:49 10.90913 -78.04809 34132 ft 467 kts 33°
2026-05-06 18:49 10.93571 -78.02897 34377 ft 467 kts 33°
2026-05-06 18:49 10.96220 -78.00991 34634 ft 466 kts 33°
2026-05-06 18:49 10.98869 -77.99083 34880 ft 466 kts 33°
2026-05-06 18:50 11.01512 -77.97183 35115 ft 465 kts 33°
2026-05-06 18:50 11.04157 -77.95281 35362 ft 465 kts 33°
2026-05-06 18:50 11.06794 -77.93382 35618 ft 464 kts 33°
2026-05-06 18:50 11.09420 -77.91490 35892 ft 462 kts 34°
2026-05-06 18:51 11.12049 -77.89597 36139 ft 462 kts 33°
2026-05-06 18:51 11.14670 -77.87708 36361 ft 461 kts 34°
2026-05-06 18:51 11.17257 -77.85843 36584 ft 461 kts 34°
2026-05-06 18:51 11.19873 -77.83954 36809 ft 460 kts 33°
2026-05-06 18:52 11.22483 -77.82070 36923 ft 461 kts 33°
2026-05-06 18:52 11.27701 -77.78306 36916 ft 457 kts 34°
2026-05-06 18:53 11.32889 -77.74559 36910 ft 458 kts 34°
2026-05-06 18:53 11.38091 -77.70801 36911 ft 458 kts 34°
2026-05-06 18:54 11.43285 -77.67048 36912 ft 458 kts 33°
2026-05-06 18:54 11.48482 -77.63290 36915 ft 458 kts 34°
2026-05-06 18:55 11.53680 -77.59530 36909 ft 458 kts 33°
2026-05-06 18:55 11.58885 -77.55761 36911 ft 459 kts 33°
2026-05-06 18:56 11.64093 -77.51990 36913 ft 458 kts 34°
2026-05-06 18:56 11.69261 -77.48244 36912 ft 459 kts 34°
2026-05-06 18:57 11.74458 -77.44479 36910 ft 459 kts 33°
2026-05-06 18:57 11.79632 -77.40666 36916 ft 459 kts 34°
2026-05-06 18:58 11.84786 -77.36782 36912 ft 459 kts 34°
2026-05-06 18:58 11.89936 -77.32915 36912 ft 459 kts 35°
2026-05-06 18:59 11.95076 -77.29048 36918 ft 459 kts 34°
2026-05-06 18:59 12.00229 -77.25172 36917 ft 459 kts 34°
2026-05-06 19:00 12.05377 -77.21298 36921 ft 460 kts 35°
2026-05-06 19:00 12.10497 -77.17445 36915 ft 460 kts 35°
2026-05-06 19:01 12.15651 -77.13562 36919 ft 460 kts 35°
2026-05-06 19:01 12.20810 -77.09672 36917 ft 461 kts 34°
2026-05-06 19:02 12.25969 -77.05780 36920 ft 461 kts 34°
2026-05-06 19:02 12.31130 -77.01888 36921 ft 461 kts 34°
2026-05-06 19:03 12.36283 -76.97999 36918 ft 461 kts 35°
2026-05-06 19:03 12.41407 -76.94130 36916 ft 461 kts 34°
2026-05-06 19:04 12.46559 -76.90236 36928 ft 461 kts 34°
2026-05-06 19:04 12.51709 -76.86344 36928 ft 460 kts 35°
2026-05-06 19:05 12.56868 -76.82441 36922 ft 462 kts 35°
2026-05-06 19:05 12.62042 -76.78526 36922 ft 462 kts 33°
2026-05-06 19:06 12.67208 -76.74614 36921 ft 462 kts 33°
2026-05-06 19:06 12.72342 -76.70725 36927 ft 462 kts 34°
2026-05-06 19:07 12.77506 -76.66812 36922 ft 462 kts 34°
2026-05-06 19:07 12.82661 -76.62902 36923 ft 459 kts 34°
2026-05-06 19:08 12.87790 -76.59011 36925 ft 459 kts 35°
2026-05-06 19:08 12.92919 -76.55118 36928 ft 459 kts 34°
2026-05-06 19:09 12.98055 -76.51215 36926 ft 459 kts 34°
2026-05-06 19:09 13.03193 -76.47313 36932 ft 460 kts 34°
2026-05-06 19:10 13.08344 -76.43396 36930 ft 460 kts 34°
2026-05-06 19:10 13.13456 -76.39507 36932 ft 460 kts 33°
2026-05-06 19:11 13.17740 -76.36249 36926 ft 455 kts 33°
2026-05-06 19:11 13.22807 -76.32388 36934 ft 454 kts 35°
2026-05-06 19:12 13.27886 -76.28519 36934 ft 454 kts 35°
2026-05-06 19:12 13.32959 -76.24651 36928 ft 454 kts 35°
2026-05-06 19:13 13.38000 -76.20808 36933 ft 454 kts 34°
2026-05-06 19:13 13.43076 -76.16935 36936 ft 454 kts 34°
2026-05-06 19:14 13.48138 -76.13068 36944 ft 453 kts 34°
2026-05-06 19:14 13.53180 -76.09218 36930 ft 450 kts 35°
2026-05-06 19:15 13.57875 -76.05630 36936 ft 450 kts 35°
2026-05-06 19:15 13.62906 -76.01783 36933 ft 451 kts 35°
2026-05-06 19:16 13.67935 -75.97936 36947 ft 451 kts 34°
2026-05-06 19:16 13.72949 -75.94096 36944 ft 450 kts 34°
2026-05-06 19:17 13.77945 -75.90271 36945 ft 450 kts 35°
2026-05-06 19:17 13.82968 -75.86421 36946 ft 449 kts 34°
2026-05-06 19:18 13.87966 -75.82587 36941 ft 448 kts 34°
2026-05-06 19:18 13.92961 -75.78756 36950 ft 448 kts 35°
2026-05-06 19:19 13.97941 -75.74932 36954 ft 448 kts 35°
2026-05-06 19:19 14.02944 -75.71091 36945 ft 449 kts 35°
2026-05-06 19:20 14.07952 -75.67242 36947 ft 448 kts 34°
2026-05-06 19:20 14.12944 -75.63403 36950 ft 449 kts 35°
2026-05-06 19:21 14.17947 -75.59555 36950 ft 448 kts 36°
2026-05-06 19:21 14.22945 -75.55707 36956 ft 448 kts 36°
2026-05-06 19:22 14.27949 -75.51853 36947 ft 449 kts 34°
2026-05-06 19:22 14.32951 -75.48000 36948 ft 449 kts 34°
2026-05-06 19:23 14.37950 -75.44143 36950 ft 449 kts 34°
2026-05-06 19:23 14.42948 -75.40287 36956 ft 448 kts 33°
2026-05-06 19:24 14.47916 -75.36454 36968 ft 446 kts 35°
2026-05-06 19:24 14.52829 -75.32657 36951 ft 441 kts 35°
2026-05-06 19:25 14.57754 -75.28852 36944 ft 442 kts 36°
2026-05-06 19:25 14.62685 -75.25038 36959 ft 443 kts 35°
2026-05-06 19:26 14.67611 -75.21227 36961 ft 441 kts 35°
2026-05-06 19:26 14.72493 -75.17449 36957 ft 442 kts 35°
2026-05-06 19:27 14.77414 -75.13637 36953 ft 442 kts 35°
2026-05-06 19:27 14.82331 -75.09826 36956 ft 440 kts 35°
2026-05-06 19:28 14.87217 -75.06037 36969 ft 439 kts 35°
2026-05-06 19:28 14.92115 -75.02238 36965 ft 440 kts 35°
2026-05-06 19:29 14.97010 -74.98437 36958 ft 439 kts 35°
2026-05-06 19:29 15.01890 -74.94681 36962 ft 440 kts 35°
2026-05-06 19:30 15.06819 -74.90914 36965 ft 440 kts 35°
2026-05-06 19:30 15.11749 -74.87141 36971 ft 439 kts 35°
2026-05-06 19:31 15.16659 -74.83382 36974 ft 440 kts 35°
2026-05-06 19:31 15.24050 -74.77719 36972 ft 440 kts 35°
2026-05-06 19:32 15.28938 -74.73971 36975 ft 441 kts 35°
2026-05-06 19:32 15.33862 -74.70193 36971 ft 441 kts 35°
2026-05-06 19:33 15.38799 -74.66402 36967 ft 441 kts 35°
2026-05-06 19:33 15.43718 -74.62623 36972 ft 440 kts 35°
2026-05-06 19:34 15.48618 -74.58858 36976 ft 439 kts 35°
2026-05-06 19:34 15.53525 -74.55084 36981 ft 440 kts 35°
2026-05-06 19:35 15.58447 -74.51295 36978 ft 440 kts 35°
2026-05-06 19:35 15.63358 -74.47514 36976 ft 440 kts 35°
2026-05-06 19:36 15.68267 -74.43731 36979 ft 440 kts 35°
2026-05-06 19:36 15.73169 -74.39953 36983 ft 440 kts 35°
2026-05-06 19:37 15.78082 -74.36162 36988 ft 439 kts 35°
2026-05-06 19:37 15.82148 -74.33024 36981 ft 439 kts 35°
2026-05-06 19:38 15.87878 -74.28597 36983 ft 438 kts 35°
2026-05-06 19:38 15.92763 -74.24822 36988 ft 438 kts 35°
2026-05-06 19:39 15.97653 -74.21040 36988 ft 438 kts 35°
2026-05-06 19:39 16.02521 -74.17273 36988 ft 438 kts 35°
2026-05-06 19:40 16.07416 -74.13483 36989 ft 438 kts 35°
2026-05-06 19:40 16.12304 -74.09696 36998 ft 435 kts 35°
2026-05-06 19:41 16.17136 -74.05949 36994 ft 433 kts 35°
2026-05-06 19:41 16.21963 -74.02204 36993 ft 433 kts 35°
2026-05-06 19:42 16.26802 -73.98448 36997 ft 434 kts 35°
2026-05-06 19:42 16.31606 -73.94716 36997 ft 434 kts 35°
2026-05-06 19:43 16.36440 -73.90959 36993 ft 434 kts 35°
2026-05-06 19:43 16.41279 -73.87195 36993 ft 434 kts 35°
2026-05-06 19:44 16.46092 -73.83450 36997 ft 429 kts 34°
2026-05-06 19:44 16.50874 -73.79726 36998 ft 429 kts 34°
2026-05-06 19:45 16.55625 -73.76023 37002 ft 429 kts 34°
2026-05-06 19:45 16.60412 -73.72291 37002 ft 429 kts 35°
2026-05-06 19:46 16.65191 -73.68562 37001 ft 429 kts 34°
2026-05-06 19:46 16.69976 -73.64827 37013 ft 429 kts 34°
2026-05-06 19:47 16.74739 -73.61106 37013 ft 428 kts 34°
2026-05-06 19:47 16.79488 -73.57393 37007 ft 426 kts 34°
2026-05-06 19:48 16.84240 -73.53677 37012 ft 426 kts 34°
2026-05-06 19:48 16.88985 -73.49962 37009 ft 426 kts 34°
2026-05-06 19:49 16.93715 -73.46257 37010 ft 426 kts 34°
2026-05-06 19:49 16.98457 -73.42541 37008 ft 426 kts 34°
2026-05-06 19:50 17.03177 -73.38840 37009 ft 426 kts 34°
2026-05-06 19:50 17.07923 -73.35117 37002 ft 425 kts 34°
2026-05-06 19:51 17.12639 -73.31414 37015 ft 425 kts 34°
2026-05-06 19:51 17.17359 -73.27706 37017 ft 424 kts 34°
2026-05-06 19:52 17.21794 -73.23643 37035 ft 426 kts 41°
2026-05-06 19:52 17.26020 -73.19268 37011 ft 426 kts 41°
2026-05-06 19:53 17.30197 -73.14916 37019 ft 427 kts 41°
2026-05-06 19:53 17.33713 -73.11248 37014 ft 427 kts 41°
2026-05-06 19:54 17.38600 -73.06147 37019 ft 427 kts 41°
2026-05-06 19:54 17.42805 -73.01754 37018 ft 427 kts 41°
2026-05-06 19:55 17.46300 -72.98100 37018 ft 427 kts 41°
2026-05-06 19:55 17.51190 -72.92986 37028 ft 426 kts 41°
2026-05-06 19:56 17.55378 -72.88600 37023 ft 425 kts 41°
2026-05-06 19:56 17.58858 -72.84955 37020 ft 425 kts 41°
2026-05-06 19:57 17.63045 -72.80566 37022 ft 425 kts 41°
2026-05-06 19:57 17.67236 -72.76198 37025 ft 425 kts 40°
2026-05-06 19:58 17.71470 -72.71889 37019 ft 424 kts 40°
2026-05-06 19:58 17.75701 -72.67573 37020 ft 424 kts 40°
2026-05-06 19:59 17.79931 -72.63252 37021 ft 424 kts 40°
2026-05-06 19:59 17.84158 -72.58932 37030 ft 424 kts 40°
2026-05-06 20:00 17.88363 -72.54631 37022 ft 422 kts 40°
2026-05-06 20:00 17.92521 -72.50312 37026 ft 423 kts 41°
2026-05-06 20:01 17.96689 -72.45946 37034 ft 423 kts 40°
2026-05-06 20:01 18.00855 -72.41584 37022 ft 421 kts 40°
2026-05-06 20:02 18.04996 -72.37243 37034 ft 422 kts 40°
2026-05-06 20:02 18.09153 -72.32884 37036 ft 422 kts 40°
2026-05-06 20:03 18.13280 -72.28553 37033 ft 422 kts 40°
2026-05-06 20:03 18.17435 -72.24189 37046 ft 421 kts 40°
2026-05-06 20:04 18.19492 -72.22027 36797 ft 414 kts 40°
2026-05-06 20:04 18.21509 -72.19906 36317 ft 410 kts 40°
2026-05-06 20:04 18.23519 -72.17792 35775 ft 407 kts 41°
2026-05-06 20:04 18.25518 -72.15690 35294 ft 403 kts 40°
2026-05-06 20:05 18.27501 -72.13619 34785 ft 402 kts 40°
2026-05-06 20:05 18.29495 -72.11540 34192 ft 404 kts 40°
2026-05-06 20:05 18.31487 -72.09457 33607 ft 404 kts 40°
2026-05-06 20:05 18.33481 -72.07373 33114 ft 401 kts 40°
2026-05-06 20:06 18.35450 -72.05314 32630 ft 398 kts 40°
2026-05-06 20:06 18.37412 -72.03263 32149 ft 396 kts 40°
2026-05-06 20:06 18.39360 -72.01224 31657 ft 395 kts 40°
2026-05-06 20:06 18.41284 -71.99211 31162 ft 394 kts 39°
2026-05-06 20:07 18.43241 -71.97162 30706 ft 391 kts 39°
2026-05-06 20:07 18.45140 -71.95174 30263 ft 390 kts 39°
2026-05-06 20:07 18.47067 -71.93154 29738 ft 389 kts 39°
2026-05-06 20:07 18.48983 -71.91145 29224 ft 388 kts 39°
2026-05-06 20:08 18.50894 -71.89143 28756 ft 386 kts 39°
2026-05-06 20:08 18.52798 -71.87150 28238 ft 385 kts 39°
2026-05-06 20:08 18.54694 -71.85165 27825 ft 382 kts 39°
2026-05-06 20:08 18.56556 -71.83216 27443 ft 378 kts 39°
2026-05-06 20:09 18.58418 -71.81268 27071 ft 375 kts 39°
2026-05-06 20:09 18.60270 -71.79328 26609 ft 375 kts 40°
2026-05-06 20:09 18.62115 -71.77392 26178 ft 373 kts 40°
2026-05-06 20:09 18.63953 -71.75465 25785 ft 371 kts 40°
2026-05-06 20:10 18.65774 -71.73558 25316 ft 368 kts 40°
2026-05-06 20:10 18.67583 -71.71658 24973 ft 365 kts 40°
2026-05-06 20:10 18.69388 -71.69763 24613 ft 365 kts 40°
2026-05-06 20:10 18.71183 -71.67878 24221 ft 364 kts 40°
2026-05-06 20:11 18.72981 -71.65991 23826 ft 364 kts 41°
2026-05-06 20:11 18.74741 -71.64142 23453 ft 362 kts 41°
2026-05-06 20:11 18.76549 -71.62242 22993 ft 362 kts 41°
2026-05-06 20:11 18.78299 -71.60402 22622 ft 359 kts 41°
2026-05-06 20:12 18.80085 -71.58524 22239 ft 357 kts 41°
2026-05-06 20:12 18.81819 -71.56700 21885 ft 354 kts 41°
2026-05-06 20:12 18.83558 -71.54871 21530 ft 352 kts 41°
2026-05-06 20:12 18.85290 -71.53049 21180 ft 351 kts 41°
2026-05-06 20:13 18.87013 -71.51234 20821 ft 349 kts 41°
2026-05-06 20:13 18.88729 -71.49427 20466 ft 347 kts 42°
2026-05-06 20:13 18.90438 -71.47627 20111 ft 346 kts 42°
2026-05-06 20:13 18.92129 -71.45846 19757 ft 344 kts 42°
2026-05-06 20:14 18.93816 -71.44067 19403 ft 343 kts 42°
2026-05-06 20:14 18.95507 -71.42285 19054 ft 342 kts 42°
2026-05-06 20:14 18.97195 -71.40505 18698 ft 341 kts 42°
2026-05-06 20:14 18.98869 -71.38739 18353 ft 340 kts 43°
2026-05-06 20:15 19.00532 -71.36985 18129 ft 333 kts 43°
2026-05-06 20:15 19.02272 -71.35436 17654 ft 331 kts 26°
2026-05-06 20:15 19.04327 -71.34592 17435 ft 322 kts 15°
2026-05-06 20:15 19.06456 -71.33866 17177 ft 317 kts 15°
2026-05-06 20:16 19.08553 -71.33172 16878 ft 315 kts 15°
2026-05-06 20:16 19.10640 -71.32495 16548 ft 313 kts 15°
2026-05-06 20:16 19.12733 -71.31825 16224 ft 318 kts 15°
2026-05-06 20:16 19.14860 -71.31151 15903 ft 322 kts 15°
2026-05-06 20:17 19.17006 -71.30472 15597 ft 320 kts 14°
2026-05-06 20:17 19.19137 -71.29799 15274 ft 318 kts 14°
2026-05-06 20:17 19.21228 -71.29139 14950 ft 317 kts 15°
2026-05-06 20:17 19.23335 -71.28474 14631 ft 315 kts 14°
2026-05-06 20:18 19.25437 -71.27811 14311 ft 314 kts 15°
2026-05-06 20:18 19.27530 -71.27150 13994 ft 313 kts 15°
2026-05-06 20:18 19.29619 -71.26490 13647 ft 313 kts 15°
2026-05-06 20:18 19.31701 -71.25832 13282 ft 311 kts 15°
2026-05-06 20:19 19.33769 -71.25178 12949 ft 309 kts 15°
2026-05-06 20:19 19.35821 -71.24529 12610 ft 307 kts 15°
2026-05-06 20:19 19.37857 -71.23885 12256 ft 306 kts 16°
2026-05-06 20:19 19.39897 -71.23240 11945 ft 304 kts 15°
2026-05-06 20:20 19.41918 -71.22599 11636 ft 302 kts 15°
2026-05-06 20:20 19.43898 -71.21972 11339 ft 300 kts 16°
2026-05-06 20:20 19.45895 -71.21340 11031 ft 299 kts 16°
2026-05-06 20:20 19.47888 -71.20709 10702 ft 298 kts 15°
2026-05-06 20:21 19.49865 -71.20082 10449 ft 295 kts 15°
2026-05-06 20:21 19.51806 -71.19466 10311 ft 287 kts 16°
2026-05-06 20:21 19.53697 -71.18867 10165 ft 279 kts 15°
2026-05-06 20:21 19.55536 -71.18284 10035 ft 273 kts 16°
2026-05-06 20:22 19.57289 -71.17581 9800 ft 269 kts 32°
2026-05-06 20:22 19.58603 -71.16189 9431 ft 270 kts 60°
2026-05-06 20:22 19.59277 -71.14349 9126 ft 267 kts 73°
2026-05-06 20:22 19.59822 -71.12479 8864 ft 264 kts 73°
2026-05-06 20:23 19.60358 -71.10619 8596 ft 263 kts 73°
2026-05-06 20:23 19.60887 -71.08761 8290 ft 262 kts 73°
2026-05-06 20:23 19.61400 -71.06943 8021 ft 260 kts 73°
2026-05-06 20:23 19.61924 -71.05076 7727 ft 260 kts 74°
2026-05-06 20:24 19.62432 -71.03263 7423 ft 260 kts 74°
2026-05-06 20:24 19.62947 -71.01425 7145 ft 259 kts 74°
2026-05-06 20:24 19.63461 -70.99586 6867 ft 259 kts 74°
2026-05-06 20:24 19.63968 -70.97778 6690 ft 253 kts 74°
2026-05-06 20:25 19.64484 -70.96001 6428 ft 252 kts 73°
2026-05-06 20:25 19.65003 -70.94219 6104 ft 253 kts 73°
2026-05-06 20:25 19.65522 -70.92432 5807 ft 253 kts 73°
2026-05-06 20:25 19.66038 -70.90656 5533 ft 252 kts 73°
2026-05-06 20:26 19.66549 -70.88897 5229 ft 248 kts 73°
2026-05-06 20:26 19.67053 -70.87169 4903 ft 242 kts 75°
2026-05-06 20:26 19.67539 -70.85491 4608 ft 234 kts 75°
2026-05-06 20:26 19.68012 -70.83869 4308 ft 225 kts 76°
2026-05-06 20:27 19.68454 -70.82350 4165 ft 205 kts 76°
2026-05-06 20:27 19.68855 -70.80973 4076 ft 186 kts 77°
2026-05-06 20:27 19.69221 -70.79707 4022 ft 177 kts 75°
2026-05-06 20:27 19.69577 -70.78480 3864 ft 171 kts 76°
2026-05-06 20:28 19.69927 -70.77282 3670 ft 168 kts 77°
2026-05-06 20:28 19.70266 -70.76101 3494 ft 168 kts 77°
2026-05-06 20:28 19.70610 -70.74922 3373 ft 167 kts 77°
2026-05-06 20:28 19.70944 -70.73768 3191 ft 159 kts 76°
2026-05-06 20:29 19.71267 -70.72658 2991 ft 155 kts 77°
2026-05-06 20:29 19.71579 -70.71570 2768 ft 153 kts 76°
2026-05-06 20:29 19.71892 -70.70484 2604 ft 155 kts 74°
2026-05-06 20:29 19.72222 -70.69361 2336 ft 160 kts 77°
2026-05-06 20:30 19.72548 -70.68249 1991 ft 157 kts 76°
2026-05-06 20:30 19.73147 -70.66114 1599 ft 146 kts 73°
2026-05-06 20:30 19.73464 -70.65092 1379 ft 143 kts 73°
2026-05-06 20:31 19.73752 -70.64108 1163 ft 139 kts 76°
2026-05-06 20:31 19.74017 -70.63135 987 ft 135 kts 76°
2026-05-06 20:31 19.74297 -70.62181 779 ft 136 kts 74°
2026-05-06 20:31 19.74567 -70.61208 625 ft 139 kts 72°
2026-05-06 20:32 19.74842 -70.60248 453 ft 133 kts 69°
2026-05-06 20:32 19.75134 -70.59312 279 ft 137 kts 74°
2026-05-06 20:32 19.75402 -70.58361 71 ft 132 kts 72°
2026-05-06 20:32 19.75645 -70.57521 35 ft 102 kts 73°
2026-05-06 20:33 19.75784 -70.57015 37 ft 53 kts 73°
2026-05-06 20:33 19.75882 -70.56654 39 ft 44 kts 72°
2026-05-06 20:33 19.75926 -70.56439 39 ft 20 kts 130°
2026-05-06 20:33 19.75823 -70.56402 38 ft 15 kts 164°
2026-05-06 20:34 19.75727 -70.56373 37 ft 8 kts 165°
2026-05-06 20:34 19.75718 -70.56370 37 ft 0 kts 165°
2026-05-06 20:35 19.75709 -70.56364 37 ft 2 kts 135°
2026-05-06 20:35 19.75707 -70.56362 37 ft 0 kts 122°
2026-05-06 20:35 19.75704 -70.56356 37 ft 2 kts 121°
2026-05-06 20:35 19.75683 -70.56333 36 ft 7 kts 143°
2026-05-06 20:36 19.75652 -70.56333 35 ft 2 kts 216°
2026-05-06 20:36 19.75638 -70.56343 37 ft 0 kts 215°